| time (UTC) | temp F | wind direction | speed MPH | gust MPH | rain 1hr in | rain 24hr in | rain mn in | humidity % | barometer mb |
| 20260504044533 | 37 | 0 | 0.0 | 0.0 | 0.00 | 0.00 | 0.00 | 66 | 1013.3 |
| 20260504043039 | 37 | 0 | 0.0 | 0.0 | 0.00 | 0.00 | 0.00 | 66 | 1013.2 |
| 20260504041530 | 38 | 0 | 0.0 | 0.0 | 0.00 | 0.00 | 0.00 | 66 | 1013.0 |
| 20260504040039 | 39 | 0 | 0.0 | 0.0 | 0.00 | 0.00 | 0.00 | 64 | 1012.9 |
| 20260504034530 | 39 | 0 | 0.0 | 0.0 | 0.00 | 0.00 | 0.00 | 62 | 1012.7 |
| 20260504033031 | 40 | 0 | 0.0 | 0.0 | 0.00 | 0.00 | 0.00 | 59 | 1012.6 |
| 20260504031533 | 41 | 0 | 0.0 | 0.0 | 0.00 | 0.00 | 0.00 | 59 | 1012.6 |
| 20260504030032 | 42 | 0 | 0.0 | 0.0 | 0.00 | 0.00 | 0.00 | 57 | 1012.5 |
| 20260504024533 | 43 | 0 | 0.0 | 0.0 | 0.00 | 0.00 | 0.00 | 53 | 1012.5 |
| 20260504023035 | 43 | 0 | 0.0 | 0.0 | 0.00 | 0.00 | 0.00 | 53 | 1012.5 |
| 20260504021530 | 44 | 0 | 0.0 | 0.0 | 0.00 | 0.00 | 0.00 | 51 | 1012.6 |
| 20260504020032 | 44 | 0 | 0.0 | 1.0 | 0.00 | 0.00 | 0.00 | 50 | 1012.5 |
| 20260504014538 | 43 | 0 | 0.0 | 0.0 | 0.00 | 0.00 | 0.00 | 50 | 1012.3 |
| 20260504013037 | 44 | 0 | 0.0 | 0.0 | 0.00 | 0.00 | 0.00 | 48 | 1012.3 |
| 20260504011531 | 45 | 0 | 0.0 | 0.0 | 0.00 | 0.00 | 0.00 | 47 | 1012.2 |
| 20260504010030 | 47 | 0 | 0.0 | 0.0 | 0.00 | 0.00 | 0.00 | 43 | 1012.1 |
| 20260504004714 | 49 | 0 | 0.0 | 0.0 | 0.00 | 0.00 | 0.00 | 40 | 1012.0 |
| 20260504004533 | 49 | 0 | 0.0 | 0.0 | 0.00 | 0.00 | 0.00 | 40 | 1012.0 |
| 20260504003031 | 50 | 0 | 0.0 | 0.0 | 0.00 | 0.00 | 0.00 | 36 | 1011.7 |
| 20260504001541 | 51 | 0 | 0.0 | 0.0 | 0.00 | 0.00 | 0.00 | 33 | 1011.5 |
| 20260504000032 | 52 | 0 | 0.0 | 0.0 | 0.00 | 0.00 | 0.00 | 32 | 1011.5 |
| 20260503234530 | 54 | 0 | 0.0 | 2.0 | 0.00 | 0.00 | 0.00 | 30 | 1011.3 |
| 20260503233033 | 55 | 0 | 0.0 | 3.0 | 0.00 | 0.00 | 0.00 | 29 | 1011.0 |
| 20260503231533 | 55 | 0 | 0.0 | 6.0 | 0.00 | 0.00 | 0.00 | 28 | 1011.0 |
| 20260503230029 | 56 | 0 | 0.0 | 3.0 | 0.00 | 0.00 | 0.00 | 28 | 1010.9 |
| 20260503224534 | 57 | 287 | 1.0 | 9.0 | 0.00 | 0.00 | 0.00 | 27 | 1010.8 |
| 20260503223032 | 58 | 0 | 0.0 | 5.0 | 0.00 | 0.00 | 0.00 | 28 | 1010.8 |
| 20260503221529 | 59 | 172 | 0.0 | 6.0 | 0.00 | 0.00 | 0.00 | 26 | 1010.9 |
| 20260503220041 | 60 | 98 | 0.0 | 4.0 | 0.00 | 0.00 | 0.00 | 26 | 1010.9 |
| 20260503214530 | 60 | 243 | 2.0 | 6.0 | 0.00 | 0.00 | 0.00 | 25 | 1010.8 |
| 20260503213030 | 61 | 0 | 0.0 | 5.0 | 0.00 | 0.00 | 0.00 | 26 | 1010.7 |
| 20260503211532 | 61 | 91 | 3.0 | 13.0 | 0.00 | 0.00 | 0.00 | 25 | 1010.4 |
| 20260503210031 | 61 | 229 | 2.0 | 8.0 | 0.00 | 0.00 | 0.00 | 23 | 1010.4 |
| 20260503204532 | 61 | 0 | 1.0 | 6.0 | 0.00 | 0.00 | 0.00 | 26 | 1010.4 |
| 20260503203045 | 61 | 130 | 1.0 | 4.0 | 0.00 | 0.00 | 0.00 | 27 | 1010.6 |
| 20260503201533 | 61 | 124 | 2.0 | 8.0 | 0.00 | 0.00 | 0.00 | 24 | 1010.7 |
| 20260503200032 | 60 | 185 | 2.0 | 14.0 | 0.00 | 0.00 | 0.00 | 23 | 1010.8 |
| 20260503194539 | 59 | 150 | 3.0 | 12.0 | 0.00 | 0.00 | 0.00 | 24 | 1010.9 |
| 20260503193038 | 58 | 212 | 2.0 | 8.0 | 0.00 | 0.00 | 0.00 | 23 | 1011.2 |
| 20260503191536 | 58 | 262 | 2.0 | 6.0 | 0.00 | 0.00 | 0.00 | 24 | 1011.4 |
| 20260503190038 | 57 | 108 | 3.0 | 9.0 | 0.00 | 0.00 | 0.00 | 23 | 1011.6 |
| 20260503184530 | 59 | 153 | 2.0 | 6.0 | 0.00 | 0.00 | 0.00 | 28 | 1011.8 |
| 20260503183034 | 57 | 209 | 2.0 | 9.0 | 0.00 | 0.00 | 0.00 | 25 | 1012.0 |
| 20260503181530 | 58 | 273 | 2.0 | 9.0 | 0.00 | 0.00 | 0.00 | 30 | 1011.9 |
| 20260503180035 | 58 | 162 | 2.0 | 7.0 | 0.00 | 0.00 | 0.00 | 25 | 1012.2 |
| 20260503174532 | 57 | 241 | 2.0 | 6.0 | 0.00 | 0.00 | 0.00 | 27 | 1012.1 |
| 20260503173031 | 56 | 205 | 2.0 | 9.0 | 0.00 | 0.00 | 0.00 | 27 | 1012.2 |
| 20260503171532 | 56 | 54 | 1.0 | 8.0 | 0.00 | 0.00 | 0.00 | 29 | 1012.1 |
| 20260503081536 | 41 | 13 | 0.0 | 4.0 | 0.00 | 0.01 | 0.00 | 52 | 1011.5 |
| 20260503071529 | 42 | 267 | 1.0 | 6.0 | 0.00 | 0.01 | 0.00 | 50 | 1011.3 |